This is the latest recevied weather packets stored in our database for station/object 9M4GEK-3. If no packets are shown the sender has not sent any weather packets the latest 10 day(s).
| Time | Temp. | Humidity | Pressure | Rain* | Wind** | Luminosity | Snow |
|---|---|---|---|---|---|---|---|
| 1787789157 | 30° C | 63% | 1011 hPa | - | - | - | - |
| 1787788257 | 28.89° C | 64% | 1011 hPa | - | - | - | - |
| 1787787409 | 27.78° C | 67% | 1010.9 hPa | - | - | - | - |
| 1787787357 | 27.78° C | 67% | 1010.9 hPa | - | - | - | - |
| 1787786962 | 28.89° C | 61% | 1012.4 hPa | - | - | - | - |
| 1787786457 | 27.78° C | 67% | 1010.8 hPa | - | - | - | - |
| 1787785557 | 27.22° C | 68% | 1010.7 hPa | - | - | - | - |
| 1787784657 | 27.78° C | 68% | 1010.7 hPa | - | - | - | - |
| 1787783845 | 27.22° C | 68% | 1010.7 hPa | - | - | - | - |
| 1787783779 | 28.89° C | 61% | 1012.4 hPa | - | - | - | - |
| 1787783030 | 28.89° C | 61% | 1012.3 hPa | - | - | - | - |
| 1787782944 | 27.22° C | 68% | 1010.5 hPa | - | - | - | - |
| 1787782147 | 28.89° C | 61% | 1012.4 hPa | - | - | - | - |
| 1787782044 | 27.22° C | 67% | 1010.5 hPa | - | - | - | - |
| 1787781143 | 27.78° C | 65% | 1010.5 hPa | - | - | - | - |
| 1787780889 | 28.89° C | 61% | 1012.1 hPa | - | - | - | - |
| 1787780243 | 27.78° C | 66% | 1010.5 hPa | - | - | - | - |
| 1787779618 | 28.89° C | 60% | 1011.8 hPa | - | - | - | - |
| 1787779343 | 27.78° C | 65% | 1010.6 hPa | - | - | - | - |
| 1787778442 | 27.78° C | 65% | 1010.6 hPa | - | - | - | - |
| 1787777542 | 27.78° C | 65% | 1010.6 hPa | - | - | - | - |
| 1787777142 | 28.89° C | 60% | 1011.4 hPa | - | - | - | - |
| 1787776641 | 27.78° C | 64% | 1010.6 hPa | - | - | - | - |
| 1787775741 | 27.78° C | 64% | 1010.7 hPa | - | - | - | - |
| 1787774841 | 28.33° C | 63% | 1010.7 hPa | - | - | - | - |
* Rain since midnight (hover to see other rain measurements)
** Current wind speed in m/s (hover to see current wind gust speed)